GW5134 Weather Reports


time (UTC)temp
F
wind
direction
speed
knots
gust
knots
rain 1hr
in
rain 24hr
in
rain mn
in
humidity
%
barometer
mb
20260510103754 44 330 0.0 0.0 0.00 0.00 0.00 94 1016.1
20260510103252 45 242 1.7 1.7 0.00 0.00 0.00 94 1016.1
20260510102751 44 32 0.0 0.0 0.00 0.00 0.00 94 1015.9
20260510102247 44 195 0.0 0.0 0.00 0.00 0.00 94 1015.8
20260510101745 45 106 0.0 1.7 0.00 0.00 0.00 94 1015.9
20260510101244 45 229 0.0 0.0 0.00 0.00 0.00 94 1015.9
20260510100739 44 43 0.0 0.0 0.00 0.00 0.00 94 1016.0
20260510100238 45 298 0.0 0.0 0.00 0.00 0.00 94 1015.7
20260510095732 45 74 0.0 0.0 0.00 0.00 0.00 94 1015.7
20260510095228 45 235 0.0 0.0 0.00 0.00 0.00 94 1015.7
20260510094727 45 309 0.0 0.0 0.00 0.00 0.00 94 1015.8
20260510094222 45 46 0.0 0.0 0.00 0.00 0.00 94 1015.6
20260510093718 45 2 0.0 0.0 0.00 0.00 0.00 94 1015.6
20260510093216 45 335 0.0 0.0 0.00 0.00 0.00 94 1015.5
20260510092712 46 344 0.0 0.0 0.00 0.00 0.00 94 1015.5
20260510092208 45 29 0.0 0.0 0.00 0.00 0.00 94 1015.5
20260510091704 46 260 0.0 0.0 0.00 0.00 0.00 93 1015.3
20260510091200 45 344 0.0 0.0 0.00 0.00 0.00 94 1015.3
20260510090657 45 2 0.0 0.0 0.00 0.00 0.00 94 1014.9
20260510090154 46 28 0.0 0.0 0.00 0.00 0.00 94 1015.2
20260510085649 46 84 0.0 0.0 0.00 0.00 0.00 94 1015.2
20260510085144 45 282 0.0 0.0 0.00 0.00 0.00 93 1014.8
20260510084641 45 246 0.0 0.0 0.00 0.00 0.00 93 1015.0
20260510084137 45 30 0.0 0.0 0.00 0.00 0.00 93 1015.0
20260510083634 46 263 0.0 0.0 0.00 0.00 0.00 93 1015.0
20260510083131 46 20 0.0 0.0 0.00 0.00 0.00 93 1014.9
20260510082627 45 64 0.0 0.0 0.00 0.00 0.00 93 1014.9
20260510082123 46 87 0.0 0.0 0.00 0.00 0.00 93 1014.9
20260510081624 46 111 0.0 0.0 0.00 0.00 0.00 94 1015.0
20260510081120 45 16 0.0 0.0 0.00 0.00 0.00 93 1014.9
20260510080619 46 352 0.0 0.0 0.00 0.00 0.00 93 1014.8
20260510080116 47 321 0.0 0.0 0.00 0.00 0.00 93 1015.0
20260510075613 47 248 0.0 0.0 0.00 0.00 0.00 93 1015.0
20260510075110 46 36 0.0 0.0 0.00 0.00 0.00 93 1014.7
20260510074607 45 54 0.0 0.0 0.00 0.00 0.00 93 1014.9
20260510074103 45 266 0.0 0.0 0.00 0.00 0.00 93 1014.8
20260510073559 46 309 0.0 0.0 0.00 0.00 0.00 93 1014.8
20260510073056 44 9 0.0 0.0 0.00 0.00 0.00 93 1014.9
20260510072552 45 323 0.0 0.0 0.00 0.00 0.00 93 1014.9
20260510072048 45 95 0.0 0.0 0.00 0.00 0.00 93 1015.2
20260510071544 45 346 0.0 0.0 0.00 0.00 0.00 93 1014.9
20260510071043 45 67 0.0 0.9 0.00 0.00 0.00 93 1014.8
20260510070539 45 200 0.0 0.0 0.00 0.00 0.00 93 1015.0
20260510070036 46 252 0.0 0.0 0.00 0.00 0.00 93 1014.9
20260510065533 46 131 0.0 0.0 0.00 0.00 0.00 93 1014.8
20260510065028 45 297 0.0 0.0 0.00 0.00 0.00 92 1014.8
20260510064525 46 204 0.0 0.0 0.00 0.00 0.00 93 1014.9
20260510064022 45 22 0.0 0.0 0.00 0.00 0.00 92 1015.0
20260510063519 46 265 0.0 0.0 0.00 0.00 0.00 92 1015.3
20260510063017 46 202 0.0 0.0 0.00 0.00 0.00 92 1014.8
20260510062512 46 201 0.0 0.0 0.00 0.00 0.00 92 1014.9
20260510062007 45 306 0.0 0.0 0.00 0.00 0.00 92 1014.9
20260510061505 46 261 0.0 0.0 0.00 0.00 0.00 92 1015.0
20260510061001 45 243 0.0 0.0 0.00 0.00 0.00 92 1014.9
20260510060457 46 242 0.0 0.0 0.00 0.00 0.00 92 1014.9
20260510055953 46 90 0.0 0.0 0.00 0.00 0.00 92 1015.2
20260510055449 46 265 0.0 0.9 0.00 0.00 0.00 92 1015.2
20260510054948 46 331 0.0 0.0 0.00 0.00 0.00 92 1015.0
20260510054442 46 310 0.0 0.0 0.00 0.00 0.00 92 1015.3
20260510053938 46 244 0.0 0.0 0.00 0.00 0.00 92 1015.3
20260510053433 46 207 0.0 0.9 0.00 0.00 0.00 92 1015.4
20260510052930 46 248 0.0 0.0 0.00 0.00 0.00 92 1015.5
20260510052426 46 137 0.0 0.0 0.00 0.00 0.00 92 1015.5
20260510051922 47 244 0.0 0.0 0.00 0.00 0.00 91 1015.4
20260510051419 46 221 0.0 0.0 0.00 0.00 0.00 92 1015.3
20260510050915 47 155 0.0 0.0 0.00 0.00 0.00 92 1015.5
20260510050412 47 220 0.0 0.0 0.00 0.00 0.00 91 1015.3
20260510045909 47 348 0.0 0.0 0.00 0.00 0.00 91 1015.4
20260510045406 47 348 0.0 0.0 0.00 0.00 0.00 91 1015.3
20260510044903 0 0.0 0.0 0.00 0.00 0.00 1015.2
20260510044400 47 103 0.0 0.0 0.00 0.00 0.00 92 1015.2
20260510043857 47 103 0.0 0.0 0.00 0.00 0.00 92 1015.3
20260510043352 47 85 0.0 0.0 0.00 0.00 0.00 92 1015.0
20260510042851 47 358 0.0 0.0 0.00 0.00 0.00 91 1015.2
20260510042346 47 6 0.0 0.0 0.00 0.00 0.00 91 1015.2
20260510041842 46 340 0.0 0.0 0.00 0.00 0.00 91 1015.0
20260510041340 47 237 0.0 0.0 0.00 0.00 0.00 91 1014.7
20260510040837 0 0.0 0.0 0.00 0.00 0.00 1014.9
20260510040334 0 0.0 0.0 0.00 0.00 0.00 1014.8
20260510035829 0 0.0 0.0 0.00 0.00 0.00 1014.7
20260510035325 48 10 0.0 0.0 0.00 0.00 0.00 90 1014.9
20260510034821 48 10 0.0 0.0 0.00 0.00 0.00 90 1014.8
20260510034319 48 338 0.0 0.0 0.00 0.00 0.00 90 1014.6
20260510033815 47 318 0.0 0.0 0.00 0.00 0.00 90 1014.6
20260510033313 49 251 0.0 0.0 0.00 0.00 0.00 90 1014.4
20260510032809 48 108 0.0 0.0 0.00 0.00 0.00 91 1014.5
20260510032306 47 2 0.0 0.0 0.00 0.00 0.00 90 1014.7
20260510031801 48 101 0.0 0.0 0.00 0.00 0.00 91 1014.5
20260510031258 48 75 0.0 0.0 0.00 0.00 0.00 90 1014.6
20260510030757 48 337 0.0 0.0 0.00 0.00 0.00 90 1014.5
20260510030254 48 10 0.0 0.0 0.00 0.00 0.00 89 1014.3
20260510025751 48 349 0.0 0.0 0.00 0.00 0.00 89 1014.4
20260510025249 48 344 0.0 0.0 0.00 0.00 0.00 88 1014.5
20260510024745 48 290 0.0 0.0 0.00 0.00 0.00 88 1014.4
20260510024242 48 68 0.0 0.0 0.00 0.00 0.00 88 1014.4
20260510023738 49 95 0.0 0.0 0.00 0.00 0.00 88 1014.2
20260510023235 49 217 0.0 0.0 0.00 0.00 0.00 88 1014.2
20260510022731 49 257 0.0 0.0 0.00 0.00 0.00 87 1014.3
20260510022231 50 250 0.0 0.9 0.00 0.00 0.00 86 1014.2
20260510021726 50 152 0.9 0.9 0.00 0.00 0.00 87 1014.1
20260510021224 50 120 0.0 0.0 0.00 0.00 0.00 87 1014.1
20260510020719 50 352 0.0 0.0 0.00 0.00 0.00 87 1014.2
20260510020219 50 316 0.0 0.0 0.00 0.00 0.00 86 1014.0
20260510015715 50 335 0.0 0.0 0.00 0.00 0.00 87 1013.9
20260510015212 50 347 0.0 0.0 0.00 0.00 0.00 86 1013.9
20260510014707 50 339 0.0 0.0 0.00 0.00 0.00 86 1013.9
20260510014200 51 313 0.0 0.0 0.00 0.00 0.00 85 1013.7
20260510013659 51 334 0.0 0.0 0.00 0.00 0.00 85 1013.6
20260510013156 52 51 0.0 0.0 0.00 0.00 0.00 85 1013.6
20260510012655 52 83 0.0 0.0 0.00 0.00 0.00 85 1013.4
20260510012151 53 316 0.0 0.0 0.00 0.00 0.00 84 1013.4
20260510011646 53 9 0.0 0.0 0.00 0.00 0.00 84 1013.5
20260510011142 53 343 0.0 0.0 0.00 0.00 0.00 83 1013.4
20260510010638 54 355 0.0 0.0 0.00 0.00 0.00 82 1013.0
20260510010136 54 13 0.0 0.0 0.00 0.00 0.00 82 1013.2
20260510005631 54 322 0.0 0.0 0.00 0.00 0.00 82 1013.1
20260510005128 54 331 0.0 0.0 0.00 0.00 0.00 81 1013.1
20260510004627 55 340 0.0 0.0 0.00 0.00 0.00 80 1013.1
20260510004124 56 20 0.0 0.0 0.00 0.00 0.00 79 1013.1
20260510003621 56 292 0.0 0.0 0.00 0.00 0.00 78 1013.0
20260510003117 57 3 0.0 0.0 0.00 0.00 0.00 77 1012.6
20260510002612 58 64 0.0 0.0 0.00 0.00 0.00 76 1012.5
20260510002109 59 268 0.0 0.0 0.00 0.00 0.00 74 1012.4
20260510001606 60 93 0.0 0.0 0.00 0.00 0.00 71 1012.4
20260510001105 60 102 0.0 0.9 0.00 0.00 0.00 72 1012.4
20260510000605 61 80 0.0 0.0 0.00 0.00 0.00 69 1012.5
20260509235558 63 102 0.9 1.7 0.00 0.00 0.00 62 1012.0
20260509235055 64 47 0.0 1.7 0.00 0.00 0.00 61 1012.3
20260509234551 64 115 0.0 3.5 0.00 0.00 0.00 61 1012.2
20260509234049 64 331 0.0 0.0 0.00 0.00 0.00 62 1012.3
20260509233546 64 222 0.9 1.7 0.00 0.00 0.00 61 1012.1
20260509233044 65 231 0.9 7.8 0.00 0.00 0.00 63 1012.2
20260509232540 66 262 5.2 7.0 0.00 0.00 0.00 58 1012.0
20260509232037 65 217 0.0 3.5 0.00 0.00 0.00 59 1012.2
20260509231533 66 77 0.0 6.1 0.00 0.00 0.00 59 1012.1
20260509231031 66 261 0.9 2.6 0.00 0.00 0.00 59 1012.1
20260509230528 67 304 1.7 3.5 0.00 0.00 0.00 58 1012.2
20260509230025 67 324 2.6 3.5 0.00 0.00 0.00 58 1012.3
20260509225520 66 304 2.6 7.8 0.00 0.00 0.00 58 1012.4
20260509225016 67 260 5.2 8.7 0.00 0.00 0.00 58 1012.3
20260509224512 67 242 5.2 8.7 0.00 0.00 0.00 58 1012.4
20260509224009 67 239 0.9 3.5 0.00 0.00 0.00 56 1012.2
20260509223505 67 323 3.5 6.1 0.00 0.00 0.00 56 1012.4
20260509223003 67 268 3.5 3.5 0.00 0.00 0.00 59 1012.2
20260509222458 67 220 1.7 7.0 0.00 0.00 0.00 56 1012.4
20260509221955 67 208 1.7 6.1 0.00 0.00 0.00 55 1012.5
20260509221451 67 255 1.7 2.6 0.00 0.00 0.00 56 1012.4
20260509220947 67 306 5.2 7.0 0.00 0.00 0.00 57 1012.5
20260509220443 67 207 0.9 7.0 0.00 0.00 0.00 57 1012.9
20260509215939 67 242 4.3 11.3 0.00 0.00 0.00 55 1012.9
20260509215435 67 276 0.9 5.2 0.00 0.00 0.00 59 1012.6
20260509214932 67 257 3.5 5.2 0.00 0.00 0.00 59 1012.6
20260509214430 66 262 0.9 3.5 0.00 0.00 0.00 60 1012.9
20260509213926 65 206 4.3 5.2 0.00 0.00 0.00 60 1012.8
20260509213422 65 228 3.5 5.2 0.00 0.00 0.00 60 1013.0
20260509212920 65 106 1.7 7.0 0.00 0.00 0.00 60 1012.8
20260509212417 65 304 0.9 3.5 0.00 0.00 0.00 60 1012.6
20260509211913 65 171 1.7 8.7 0.00 0.00 0.00 58 1012.6
20260509211409 65 48 1.7 3.5 0.00 0.00 0.00 60 1012.4
20260509210905 66 219 1.7 2.6 0.00 0.00 0.00 61 1012.3
20260509210403 68 249 4.3 5.2 0.00 0.00 0.00 58 1012.4
20260509205858 67 316 3.5 5.2 0.00 0.00 0.00 59 1012.3
20260509205353 66 237 3.5 6.1 0.00 0.00 0.00 62 1012.4
20260509204850 66 305 1.7 2.6 0.00 0.00 0.00 62 1012.3
20260509204346 65 230 4.3 9.6 0.00 0.00 0.00 60 1012.3
20260509203842 65 112 3.5 6.1 0.00 0.00 0.00 58 1012.3
20260509203338 67 288 2.6 6.1 0.00 0.00 0.00 58 1012.6
20260509202836 67 223 1.7 6.1 0.00 0.00 0.00 58 1012.2
20260509202332 66 241 7.8 8.7 0.00 0.00 0.00 61 1012.4
20260509201831 65 216 3.5 3.5 0.00 0.00 0.00 62 1012.4
20260509201328 65 219 7.0 7.8 0.00 0.00 0.00 61 1012.5
20260509200824 65 260 0.0 6.1 0.00 0.00 0.00 63 1012.5
20260509200320 65 220 5.2 7.0 0.00 0.00 0.00 62 1012.6
20260509195816 65 219 4.3 6.1 0.00 0.00 0.00 61 1012.6
20260509195311 66 253 3.5 3.5 0.00 0.00 0.00 61 1012.4
20260509194811 66 276 0.0 3.5 0.00 0.00 0.00 62 1012.8
20260509194307 65 211 3.5 3.5 0.00 0.00 0.00 62 1012.8
20260509193804 65 231 2.6 6.1 0.00 0.00 0.00 64 1012.6
20260509193304 65 256 6.1 8.7 0.00 0.00 0.00 62 1012.8
20260509192800 65 280 2.6 5.2 0.00 0.00 0.00 61 1012.6
20260509192256 65 289 1.7 7.8 0.00 0.00 0.00 59 1012.8
20260509191751 65 211 4.3 7.0 0.00 0.00 0.00 60 1012.6
20260509191248 65 285 5.2 6.1 0.00 0.00 0.00 61 1012.9
20260509190743 65 301 7.8 11.3 0.00 0.00 0.00 57 1012.4
20260509190241 65 219 5.2 11.3 0.00 0.00 0.00 62 1012.5
20260509185738 65 311 3.5 7.0 0.00 0.00 0.00 61 1012.8
20260509185234 65 253 2.6 7.0 0.00 0.00 0.00 59 1012.6
20260509184732 65 221 3.5 8.7 0.00 0.00 0.00 59 1012.8
20260509184229 64 245 3.5 8.7 0.00 0.00 0.00 61 1012.5
20260509183725 65 247 2.6 9.6 0.00 0.00 0.00 59 1012.8
20260509183221 64 255 5.2 9.6 0.00 0.00 0.00 59 1012.9
20260509182716 64 274 3.5 9.6 0.00 0.00 0.00 61 1012.6
20260509182214 64 246 7.0 9.6 0.00 0.00 0.00 61 1012.5
20260509181712 64 240 1.7 7.8 0.00 0.00 0.00 60 1012.6
20260509181209 64 207 3.5 6.1 0.00 0.00 0.00 61 1012.9
20260509180706 64 227 3.5 7.0 0.00 0.00 0.00 61 1012.8
20260509180202 64 252 2.6 7.0 0.00 0.00 0.00 58 1012.9
20260509175659 64 249 2.6 5.2 0.00 0.00 0.00 64 1012.8
20260509175155 64 318 7.8 13.0 0.00 0.00 0.00 61 1013.1
20260509174651 64 223 4.3 12.2 0.00 0.00 0.00 62 1012.8
20260509174150 65 203 4.3 9.6 0.00 0.00 0.00 57 1012.6
20260509173647 65 217 4.3 6.1 0.00 0.00 0.00 60 1012.8
20260509173143 65 237 6.1 7.8 0.00 0.00 0.00 58 1012.8
20260509172639 64 86 1.7 5.2 0.00 0.00 0.00 55 1012.6
20260509172136 65 327 0.9 3.5 0.00 0.00 0.00 55 1012.6
20260509171631 64 220 0.9 3.5 0.00 0.00 0.00 60 1013.0
20260509171128 64 192 4.3 7.8 0.00 0.00 0.00 55 1012.9
20260509170624 63 217 6.1 11.3 0.00 0.00 0.00 60 1012.8
20260509170121 64 262 4.3 8.7 0.00 0.00 0.00 59 1013.0
20260509165619 65 204 0.9 3.5 0.00 0.00 0.00 54 1013.0
20260509165115 63 310 0.0 5.2 0.00 0.00 0.00 59 1013.1
20260509164611 63 240 3.5 7.0 0.00 0.00 0.00 56 1013.1
20260509164106 63 237 2.6 7.0 0.00 0.00 0.00 60 1013.0
20260509163605 63 137 6.1 9.6 0.00 0.00 0.00 56 1012.9
20260509163100 64 219 6.1 8.7 0.00 0.00 0.00 56 1013.0
20260509162557 63 100 7.8 8.7 0.00 0.00 0.00 59 1013.1
20260509162053 63 226 0.0 6.1 0.00 0.00 0.00 60 1013.0
20260509161545 62 254 0.0 0.0 0.00 0.00 0.00 56 1013.0
20260509161045 61 217 0.0 1.7 0.00 0.00 0.00 63 1013.0
20260509160541 61 225 1.7 3.5 0.00 0.00 0.00 57 1013.2
20260509160036 62 212 1.7 1.7 0.00 0.00 0.00 59 1012.9
20260509155533 61 350 0.0 0.9 0.00 0.00 0.00 61 1013.1
20260509155029 60 230 1.7 3.5 0.00 0.00 0.00 60 1013.1
20260509154525 60 220 1.7 2.6 0.00 0.00 0.00 62 1013.0
20260509154023 61 229 1.7 5.2 0.00 0.00 0.00 64 1013.2
20260509153520 61 129 2.6 6.1 0.00 0.00 0.00 59 1013.4
20260509153017 61 138 0.9 3.5 0.00 0.00 0.00 63 1013.3
20260509152512 61 233 0.9 1.7 0.00 0.00 0.00 64 1013.4
20260509152009 60 125 0.9 3.5 0.00 0.00 0.00 64 1013.3
20260509151506 59 122 0.9 1.7 0.00 0.00 0.00 67 1013.4
20260509151004 60 105 6.1 6.1 0.00 0.00 0.00 67 1013.4
20260509150501 60 107 2.6 3.5 0.00 0.00 0.00 70 1013.4
20260509145959 59 102 1.7 2.6 0.00 0.00 0.00 69 1013.7
20260509145455 59 98 0.0 0.0 0.00 0.00 0.00 67 1013.8
20260509144949 60 226 0.9 2.6 0.00 0.00 0.00 66 1013.9
20260509144447 60 229 0.0 0.0 0.00 0.00 0.00 67 1013.7
20260509143944 60 37 0.0 1.7 0.00 0.00 0.00 67 1013.6
20260509143441 59 103 0.9 2.6 0.00 0.00 0.00 67 1013.5
20260509142937 59 155 1.7 3.5 0.00 0.00 0.00 67 1013.3
20260509142434 58 133 0.9 2.6 0.00 0.00 0.00 68 1013.4
20260509141929 59 111 2.6 3.5 0.00 0.00 0.00 71 1013.4
20260509141427 60 306 0.0 1.7 0.00 0.00 0.00 68 1013.3
20260509140923 60 103 1.7 1.7 0.00 0.00 0.00 68 1013.3
20260509140420 60 350 0.0 0.9 0.00 0.00 0.00 68 1013.5
20260509135918 60 245 0.0 0.9 0.00 0.00 0.00 67 1013.6
20260509135415 59 22 0.0 1.7 0.00 0.00 0.00 69 1013.3
20260509134913 58 88 0.0 0.9 0.00 0.00 0.00 71 1013.6
20260509134410 58 284 0.9 1.7 0.00 0.00 0.00 72 1013.7
20260509133907 56 70 1.7 2.6 0.00 0.00 0.00 73 1013.4
20260509133403 57 156 0.0 0.0 0.00 0.00 0.00 72 1013.7
20260509132902 56 98 0.9 1.7 0.00 0.00 0.00 73 1013.9
20260509132400 56 101 0.0 1.7 0.00 0.00 0.00 74 1013.8
20260509131857 56 113 0.9 1.7 0.00 0.00 0.00 73 1013.9
20260509131354 56 222 0.0 0.9 0.00 0.00 0.00 74 1013.8
20260509130850 56 118 0.0 0.9 0.00 0.00 0.00 74 1014.0
20260509130345 55 207 0.9 0.9 0.00 0.00 0.00 76 1014.0
20260509125842 55 90 0.0 0.0 0.00 0.00 0.00 75 1013.7
20260509125339 55 274 0.0 0.0 0.00 0.00 0.00 79 1013.8
20260509124835 55 302 0.0 0.0 0.00 0.00 0.00 79 1013.7
20260509124332 54 302 0.0 0.0 0.00 0.00 0.00 79 1013.9
20260509123830 53 319 0.0 0.0 0.00 0.00 0.00 81 1013.9
20260509123327 53 312 0.0 0.0 0.00 0.00 0.00 83 1013.8
20260509122822 52 252 0.0 0.0 0.00 0.00 0.00 85 1014.0
20260509122320 52 270 0.0 0.0 0.00 0.00 0.00 84 1014.0
20260509121817 51 337 0.0 0.0 0.00 0.00 0.00 85 1014.0
20260509121314 50 97 0.0 0.0 0.00 0.00 0.00 85 1014.0
20260509120812 50 106 0.0 0.0 0.00 0.00 0.00 85 1013.8
20260509120310 50 83 0.0 0.0 0.00 0.00 0.00 85 1013.7
20260509115808 50 110 0.0 0.0 0.00 0.00 0.00 86 1013.7
20260509115307 50 98 0.0 0.0 0.00 0.00 0.00 86 1013.8
20260509114802 50 258 0.0 0.0 0.00 0.00 0.00 86 1013.9
20260509114301 50 343 0.0 0.0 0.00 0.00 0.00 86 1014.0
20260509113759 50 307 0.0 0.0 0.00 0.00 0.00 87 1014.0
20260509113256 49 324 0.0 0.0 0.00 0.00 0.00 87 1013.8
20260509112753 49 273 0.0 0.0 0.00 0.00 0.00 87 1013.8
20260509112250 49 333 0.0 0.0 0.00 0.00 0.00 87 1013.9
20260509111747 49 70 0.0 0.0 0.00 0.00 0.00 87 1013.7
20260509111244 49 322 0.0 0.0 0.00 0.00 0.00 87 1013.7
20260509110741 49 329 0.0 0.0 0.00 0.00 0.00 87 1013.9
20260509110238 49 100 0.0 0.0 0.00 0.00 0.00 87 1013.8
20260509105736 49 106 0.0 0.0 0.00 0.00 0.00 87 1013.9
20260509105233 49 115 0.0 0.0 0.00 0.00 0.00 86 1013.7
20260509104730 49 108 0.0 0.0 0.00 0.00 0.00 86 1013.7
20260509104227 48 354 0.0 0.0 0.00 0.00 0.00 87 1013.7